Flag for Germany Weather past 2 weeks in Pforzheim, Baden-Württemberg, Germany

Now
66 °F

Sunny.


Feels Like: 66 °F
Forecast: 49 / 65 °F
Wind: 10 mph from West

Location: Stuttgart-Echterdingen

Current Time: Aug 22, 2014 at 4:27:35 PM

Latest Report: Aug 22, 2014 at 3:50 PM


Visibility: 10 mi

Pressure: 29.98 "Hg

Humidity: 49%

Dew point: 46 °F

Location of PforzheimLocation

Historic Weather in Pforzheim — Graph

°F

Pforzheim temperature yesterday

Maximum temperature yesterday: 66 °F (at 3:20 PM)
Minimum temperature yesterday: 48 °F (at 6:50 AM)
Average temperature yesterday: 58 °F

Past Weeks' High & Low Weather Summary

 TemperatureHumidityPressure
High82 °F (Aug 10, 5:20 PM)100% (Aug 8, 2:50 AM)30.18 "Hg (Aug 8, 2:50 AM)
Low48 °F (Aug 21, 6:50 AM)40% (Aug 19, 5:50 PM)29.68 "Hg (Aug 13, 1:20 PM)
Average62 °F72%29.96 "Hg
* Reported Aug 7 3:20 PM — Aug 22 3:20 PM, Pforzheim, Weather by CustomWeather, © 2014

Note: Actual official high and low records may vary slightly from our data, if they occured in-between our weather recording intervals... More about our weather records

Advertising

Pforzheim weather history for previous 24 hours

 ConditionsComfort  
Time TempWeatherWind HumidityBarometerVisibility
3:20 PM
Aug 22
66 °FSunny.10 mph52%29.98 "Hg10 mi
2:50 PM66 °FSunny.8 mph46%29.98 "Hg10 mi
2:20 PM66 °FSunny.5 mph49%30.01 "Hg10 mi
1:50 PM64 °FSunny.6 mph52%30.01 "Hg10 mi
1:20 PM64 °FSunny.5 mph43%30.01 "Hg10 mi
12:50 PM64 °FSunny.7 mph46%30.01 "Hg10 mi
12:20 PM64 °FSunny.3 mph46%30.01 "Hg10 mi
11:50 AM66 °FBroken clouds.5 mph46%30.01 "HgN/A
11:20 AM63 °FPartly sunny.5 mph59%30.04 "HgN/A
10:50 AM61 °FSunny.5 mph63%30.04 "Hg10 mi
10:20 AM59 °FSunny.2 mph77%30.04 "Hg10 mi
9:50 AM57 °FSunny.2 mph72%30.04 "Hg10 mi
9:20 AM55 °FSunny.2 mph77%30.01 "Hg10 mi
8:50 AM54 °FSunny.2 mph82%30.01 "Hg10 mi
8:20 AM52 °FSunny.2 mph88%30.01 "Hg10 mi
7:50 AM50 °FBroken clouds.1 mph94%30.01 "HgN/A
7:20 AM50 °FPartly cloudy.1 mph94%30.01 "HgN/A
6:50 AM48 °FClear.2 mph94%30.01 "Hg10 mi
6:20 AM48 °FClear.1 mph94%30.01 "Hg10 mi
5:50 AM50 °FClear.1 mph88%30.01 "Hg10 mi
5:20 AM50 °FClear.2 mph88%30.01 "Hg10 mi
4:20 AM48 °FClear.1 mph94%30.04 "Hg10 mi
3:50 AM50 °FClear.1 mph88%30.04 "Hg10 mi
3:20 AM50 °FClear.3 mph88%30.04 "Hg10 mi
2:50 AM50 °FClear.1 mph82%30.04 "Hg10 mi
2:20 AM50 °FClear.2 mph88%30.04 "Hg10 mi
1:50 AM50 °FClear.1 mph82%30.04 "Hg10 mi
1:20 AM50 °FClear.1 mph88%30.04 "Hg10 mi
12:50 AM52 °FClear.2 mph82%30.04 "Hg10 mi
12:20 AM54 °FClear.1 mph77%30.04 "Hg10 mi
11:50 PM
Aug 21
54 °FClear.2 mph77%30.04 "Hg10 mi
11:20 PM55 °FClear.No wind72%30.04 "Hg10 mi
10:50 PM55 °FClear.1 mph72%30.04 "Hg10 mi
10:20 PM57 °FClear.No wind67%30.04 "Hg10 mi
9:50 PM59 °FClear.2 mph63%30.04 "Hg10 mi
9:20 PM59 °FSunny.5 mph63%30.04 "Hg10 mi
8:50 PM61 °FSunny.2 mph59%30.04 "Hg10 mi
8:20 PM61 °FSunny.5 mph59%30.04 "Hg10 mi
7:50 PM63 °FSunny.5 mph56%30.01 "Hg10 mi
7:20 PM63 °FSunny.6 mph52%30.01 "Hg10 mi
6:50 PM64 °FSunny.6 mph49%30.01 "Hg10 mi
6:20 PM63 °FSunny.6 mph56%30.01 "Hg10 mi
5:50 PM64 °FSunny.6 mph52%30.01 "Hg10 mi
5:20 PM64 °FSunny.6 mph52%30.01 "Hg10 mi
4:50 PM64 °FSunny.9 mph52%30.01 "Hg10 mi
4:20 PM64 °FSunny.7 mph52%30.04 "Hg10 mi
Weather by CustomWeather, © 2014

See weather overviewHow to use our weather pages